Simultaneous Nadir Overpasses (SNOs) Predictions

Prediction of SNOs between AQUA and NPP Satellite Orbit:

Table of predicted SNOs for the next 14.0 days since TLE Epoch: 9/3/2022
Index Date (AQUA) Time (AQUA) Lat,Lon (AQUA) SZA (AQUA ) Date (NPP) Time (NPP) Lat,Lon (NPP) SZA (NPP ) Distance(km) Time Diff (sec)
1 09/05/2022 10:03:35 78.76, -79.28 86.87 09/05/2022 10:03:27 78.77, -79.15 86.85 3.01 8
2 09/05/2022 10:52:54 -79.08, 90.25 93.57 09/05/2022 10:54:04 -79.08, 90.27 93.62 0.45 70
3 09/08/2022 01:30:02 -78.56,-131.98 91.94 09/08/2022 01:29:44 -78.55,-132.05 91.91 1.72 18
4 09/08/2022 02:19:16 79.01, 38.21 87.47 09/08/2022 02:20:16 79.01, 38.18 87.43 0.66 60
5 09/10/2022 16:56:24 78.51, 176.17 89.07 09/10/2022 16:55:56 78.50, 176.09 89.11 1.79 28
6 09/10/2022 17:45:38 -79.04, -13.17 91.64 09/10/2022 17:46:27 -79.05, -13.08 91.70 1.91 49
7 09/13/2022 08:22:44 -78.62, 125.18 90.14 09/13/2022 08:22:05 -78.62, 125.27 90.13 1.96 39
8 09/13/2022 09:11:59 79.02, -64.86 89.33 09/13/2022 09:12:38 79.03, -64.74 89.28 2.87 39
9 09/15/2022 23:49:09 78.41, 72.54 91.08 09/15/2022 23:48:21 78.40, 72.44 91.14 2.38 48



Historial Predications of SNOs between AQUA and NPP
